Weather in Chernobay

Ukraine / Cherkassi District     49°40′27″N   32°19′45″E
temp.,
°C
wind,
m/s
gust,
m/s
humid.,
%
clouds,
%
prec.,
mm/h
press.,
hPa
HPBL,
m
16 may, sun
sun1600:00+13wsw22892 0.0 101213
03:00+11wsw22900 0.0 101322
06:00+12w22875 0.0 101217
09:00+18wsw116699 0.0 1013349
12:00+22ese115397 0.0 1012939
15:00+23e3347100 0.0 10112137
18:00+22ne3562100 0.0 1009326
21:00+17ne487612 0.0 1008116
17 may, mon
mon1700:00+15ne41181100 0.0 1007207
03:00+14nne5993100 2.3 1004206
06:00+14n469778 12.8 1004194
09:00+17nw2188100 13.2 1003363
12:00+21nw1176100 0.3 1002812
15:00+19w4588100 0.8 1002283
18:00+19w248898 1.4 1002245
21:00+16ssw119324 1.8 100311
18 may, tue
tue1800:00+14w2295100 0.5 100412
03:00+13sw34975 0.9 100472
06:00+12s2292100 0.0 100426
09:00+17sse4580100 0.0 1005505
12:00+20sse676537 1.2 10041095
15:00+20sse786521 2.2 10021339
18:00+17ssw588399 3.6 1003546
21:00+14se3795100 4.1 1003335
19 may, wed
wed1900:00+13se379837 0.2 1002206
03:00+12se379857 0.3 1002176
06:00+12sse479365 0.0 1002461
09:00+13sse4582100 0.0 1003714
12:00+15sse467588 0.1 1004853
15:00+17ssw446658 0.3 10041136
18:00+16sw557526 0.4 1004792
21:00+12w61093100 0.8 1005504
20 may, thu
thu2000:00+12w7119199 0.2 1007701
03:00+12w71288100 0.2 1009818
06:00+10wsw512948 0.0 1010373
09:00+14w68750 0.0 1011648
12:00+18wsw575836 0.0 10121399
15:00+20sw4654100 0.0 10121797
18:00+15wsw3589100 1.6 1013232
21:00+13e2497100 7.1 1013149